SCP
0 0 0 0 0 0 0 0 0 0 0 0 0 0 0 0 0 0 0 0 0 -0 -0 -0 -0 0 0 0 0 0 0 0 0 0 0 0 0 0 0 0 0 0 0 0
0 0 0 0 0 0 0 0 0 0 0 0 0 0 0 0 0 0 0 0 0 -0 -0 -0 0 0 0 0 0 0 0 0 0 0 0 0 0 0 0 0 0 0 0 0
0 0 0 0 0 0 0 0 0 0 0 0 0 0 0 0 0 0 0 -0 -0 -0 -0 0 0 0 0 -0 -0 0 0 0 0 0 0 0 0 0 0 0 0 0 0 0
0 0 0 0 0 0 0 0 0 0 0 0 0 0 0 0 0 0 -0 -0 -0 -0 0 0 0 -0 -0 -0 0 0 0 0 0 0 0 0 0 0 0 0 0 0 0 0
0 0 0 0 0 0 0 0 0 0 0 0 0 0 0 0 -0 -0 -0 -0 -0 -0 -0 0 -0 -0 -0 -0 0 0 0 0 0 0 0 0 0 0 0 0 0 0 0 0
0 0 0 0 0 0 0 0 0 0 0 0 0 0 0 0 -0 -0 -0 -0 -0 -0 0 -0 -0 -0 -0 -0 0 0 0 0 0 0 0 0 0 0 0 0 0 0 0 0
0 0 0 0 0 0 0 0 0 0 0 0 0 0 0 0 -0 -0 -0 -0 -0 -0 0 -0 -0 -0 -0 0 0 0 0 0 0 0 0 0 0 0 0 0 0 0 -0 0
0 0 0 0 0 0 0 0 0 0 0 0 0 0 0 0 -0 -0 -0 -0 0 0 0 0 -0 0 -0 0 0 0 0 0 0 0 0 0 0 0 0 0 0 0 -0 0
0 0 0 0 0 0 0 0 0 0 0 0 0 0 0 0 -0 -0 -0 -0 -0 0 0 0 0 0 -0 0 0 0 0 0 0 0 0 0 0 0 0 0 0 0 -0 0
0 0 0 0 0 0 0 0 0 0 0 0 0 0 0 -0 -0 -0 -0 -0 0 0 0 0 0 0 0 0 0 0 0 0 0 0 0 0 0 0 0 0 -0 0 0 0
0 0 0 0 0 0 0 0 0 0 0 0 0 0 -0 -0 -0 -0 -0 -0 -0 0 0 0 0 0 0 0 0 0 0 0 0 0 0 0 0 0 0 0 0 0 0 0
0 0 0 0 0 0 0 0 0 0 0 0 0 0 -0 -0 -0 -0 -0 -0 -0 0 0 0 0 0 0 0 0 0 0 0 0 0 0 0 0 0 0 0 0 0 0 0
0 0 0 0 0 0 0 0 0 0 0 0 0 0 -0 -0 -0 -0 -0 -0 -0 -0 -0 0 0 0 0 0 0 0 0 0 0 0 0 0 0 0 0 0 0 -0 0 -0
0 0 0 0 0 0 0 0 0 0 0 0 0 0 -0 -0 -0 -0 0 -0 -0 -0 -0 -0 0 0 0 0 0 0 0 0 0 0 0 0 0 0 0 0 0 0 0 -0
0 0 0 0 0 0 0 0 0 0 0 0 0 0 -0 -0 -0 -0 -0 0 -0 -0 -0 -0 0 0 0 0 0 0 0 0 0 0 0 0 0 0 0 0 0 0 0 0
0 0 0 0 0 0 0 0 0 0 0 0 0 0 -0 -0 -0 -0 -0 -0 -0 -0 -0 -0 -0 0 0 0 0 0 0 0 0 0 0 0 0 0 0 0 -0 0 0 0
0 0 0 0 0 0 0 0 0 0 0 0 0 0 0 -0 -0 -0 -0 -0 -0 -0 -0 -0 0 0 -0 0 0 0 0 0 0 0 0 0 0 0 0 -0 -0 -0 -0 0
0 0 0 0 0 0 0 0 0 0 0 0 0 0 0 0 -0 -0 -0 -0 -0 0 -0 0 0 -0 -0 0 0 0 0 0 0 0 0 0 0 0 0 -0 -0 -0 -0 -0
-0 -0 0 0 0 0 0 -0 -0 -0 0 0 -0 -0 -0 -0 -0 -0 -0 -0 0 -0 -0 -0 -0 -0 -0 -0 0 0 0 0 0 0 0 0 0 0 0 -0 -0 -0 -0 0
0 0 0 0 0 0 0 0 0 0 0 0 0 0 0 0 -0 -0 -0 -0 -0 -0 -0 -0 -0 -0 0 -0 0 0 0 0 0 0 0 0 0 0 0 0 0 -0 -0 0
0 0 0 0 0 0 0 0 0 -0 0 0 0 0 -0 -0 -0 -0 -0 -0 -0 -0 -0 -0 -0 -0 -0 -0 -0 -0 0 0 0 0 0 0 0 0 0 0 0 0 -0 0
0 0 0 0 0 0 0 0 -0 0 0 0 0 0 0 -0 -0 -0 -0 -0 -0 -0 -0 -0 -0 -0 -0 0 -0 -0 0 0 0 0 0 0 0 0 0 0 0 0 0 0
0 0 0 0 0 0 0 0 0 0 0 0 0 0 -0 -0 -0 -0 -0 -0 -0 -0 -0 -0 -0 -0 -0 -0 -0 -0 -0 0 0 0 0 0 0 0 0 0 0 0 0 0
0 0 0 0 0 0 0 0 0 0 0 0 0 0 -0 -0 -0 -0 -0 -0 -0 -0 -0 -0 0 0 0 -0 -0 -0 -0 0 0 0 0 0 0 0 0 0 0 0 0 0
0 0 0 0 0 0 0 0 0 0 0 0 0 0 0 -0 -0 -0 -0 -0 -0 -0 -0 0 0 0 0 0 0 0 -0 -0 0 0 0 0 0 0 0 0 0 0 0 0
0 0 0 0 -0 -0 -0 0 0 0 0 0 0 0 0 0 0 0 0 0 -0 -0 -0 -0 0 0 0 0 0 0 0 0 0 0 0 0 0 0 0 0 0 0 0 0
0 0 -0 -0 -0 -0 -0 -0 -0 0 0 0 0 0 0 0 0 0 0 0 0 -0 -0 -0 -0 0 0 0 -0 -0 -0 -0 -0 -0 -0 0 0 0 0 0 0 0 0 0
Wind_Speed_500mb
5 3 2 6 9 12 13 10 11 8 13 14 21 14 8 14 27 23 28 48 55 60 64 58 51 56 57 57 52 50 58 61 61 64 66 68 71 71 72 70 70 74 75 76
4 4 12 12 14 15 15 20 19 26 16 2 16 14 7 16 19 18 38 54 59 61 48 46 50 59 57 49 47 51 56 64 67 68 69 71 73 74 73 72 72 71 72 73
7 6 7 9 18 17 9 10 17 20 12 12 8 7 10 11 7 25 47 54 58 49 56 56 57 52 48 46 48 52 57 67 63 66 72 76 74 75 77 76 72 68 67 64
3 4 9 7 8 7 9 5 7 10 9 7 4 7 16 2 16 40 48 51 48 56 59 56 51 45 41 44 50 58 64 66 66 69 75 73 74 77 80 77 72 69 66 64
4 6 9 2 6 7 8 9 8 11 9 3 2 9 2 2 37 46 45 45 50 51 52 52 47 41 41 44 51 60 60 66 64 68 73 75 81 84 83 71 69 65 59 58
6 4 8 6 2 3 5 6 14 13 7 5 4 7 5 26 42 43 44 43 47 48 49 47 44 40 41 43 51 58 61 62 64 64 68 72 72 65 55 54 57 59 58 56
9 6 11 8 9 9 6 7 16 11 9 4 3 6 19 32 35 39 41 43 44 45 47 45 41 38 39 42 49 56 59 60 61 61 66 67 65 59 49 48 52 56 48 46
9 9 12 4 4 7 5 16 22 14 10 8 1 10 21 26 35 40 44 45 46 49 48 43 38 36 37 47 49 53 57 58 59 57 60 61 57 54 47 46 54 42 38 46
11 8 4 4 6 21 17 22 15 16 12 4 6 14 18 26 32 36 42 45 45 46 48 45 40 37 41 45 47 49 54 53 57 57 62 61 61 55 48 49 41 36 48 39
4 5 6 13 19 14 9 13 16 14 7 4 7 14 16 24 29 34 39 46 47 48 50 51 45 39 38 43 46 48 54 55 54 58 63 61 60 55 41 32 30 41 41 32
4 5 6 7 19 17 25 22 19 13 9 10 11 18 20 24 29 33 39 42 48 51 52 50 49 45 41 40 41 45 50 54 53 58 53 62 61 54 35 26 29 45 42 37
9 22 14 11 24 30 29 23 16 12 14 9 14 18 19 20 25 30 36 40 44 48 54 54 54 53 50 42 38 42 48 47 46 58 55 56 62 48 20 29 25 40 48 34
9 21 16 21 33 32 25 20 17 13 12 11 18 23 26 21 26 27 34 43 43 49 49 55 59 59 57 50 38 37 42 44 44 45 50 54 61 42 32 18 38 37 38 22
21 40 22 32 25 28 19 18 17 15 18 17 13 18 27 33 29 32 37 40 42 45 48 51 58 63 63 56 41 35 38 39 39 38 43 46 48 47 33 38 42 48 48 30
35 23 27 32 37 25 17 20 21 20 18 16 15 16 25 34 38 39 40 41 42 47 51 54 56 61 65 59 49 39 34 40 40 33 32 35 34 33 35 37 43 46 48 40
29 27 40 41 30 22 24 23 21 19 12 8 7 12 18 27 34 41 46 47 49 53 53 54 54 55 57 59 56 48 40 35 35 34 28 28 32 26 25 26 30 37 43 48
49 37 40 35 29 30 26 23 18 13 9 7 0 8 10 21 32 43 49 49 45 52 52 53 53 53 53 55 57 54 50 40 36 37 38 31 26 30 25 20 21 23 30 31
29 29 32 30 37 37 28 21 18 16 14 12 11 9 9 20 33 43 50 53 52 57 56 55 49 49 51 53 53 56 55 51 45 45 42 40 37 32 26 23 18 21 24 19
25 38 35 35 39 35 31 28 24 22 18 15 14 15 10 15 27 38 47 52 56 62 60 56 53 52 51 51 52 53 54 56 56 53 50 44 44 41 38 29 22 18 23 21
39 38 39 39 32 28 28 23 19 17 17 16 17 17 12 14 25 36 45 49 49 56 51 52 53 55 56 55 54 55 55 56 57 57 58 56 52 49 46 38 32 25 19 17
42 41 40 36 31 25 20 18 13 11 11 17 22 20 16 17 26 38 47 49 46 49 49 50 55 54 54 55 57 60 61 59 59 60 59 57 57 57 53 48 43 37 29 22
43 41 37 33 29 26 20 17 12 10 7 19 21 16 15 21 30 39 42 41 39 44 54 54 53 55 54 55 57 58 60 62 61 61 59 58 58 55 55 55 51 45 38 30
39 36 34 30 26 24 22 18 16 6 12 20 20 17 20 27 34 42 44 41 36 36 48 53 53 53 56 54 57 58 58 60 63 61 61 59 56 55 54 52 52 50 46 41
36 31 32 29 24 22 21 20 11 11 18 21 20 16 17 26 31 37 35 37 36 35 39 47 49 50 53 56 56 56 57 60 61 61 60 59 59 57 55 54 52 50 49 47
30 28 27 28 23 16 17 17 12 13 18 20 19 16 20 29 33 33 34 37 43 43 41 45 47 48 52 54 56 58 57 57 59 61 61 60 61 61 60 57 55 53 51 49
30 24 21 20 16 14 14 14 11 13 15 19 18 17 21 27 29 29 31 36 41 46 47 47 50 53 53 54 54 54 55 56 58 60 61 62 60 61 63 62 60 57 56 54
28 23 25 26 19 14 11 9 6 9 13 17 18 18 22 27 28 27 28 31 37 44 47 48 50 53 57 57 57 57 57 55 55 56 58 61 63 63 62 65 65 62 60 58
Wind_Direction_500mb
209 208 180 218 232 208 198 177 194 229 206 216 213 204 240 308 322 315 327 334 333 329 326 324 325 325 323 322 328 329 327 327 324 321 318 316 314 312 311 306 295 285 282 274
298 215 221 244 243 241 213 213 231 241 254 239 162 166 257 301 312 309 323 327 326 325 325 321 319 323 321 328 334 330 327 327 325 324 321 317 314 310 307 301 302 292 276 274
250 340 330 267 232 220 220 200 194 216 222 154 155 206 280 310 296 324 326 323 324 322 326 322 321 320 324 331 332 333 334 336 328 326 324 320 317 310 300 300 298 300 283 283
205 334 239 255 335 221 162 78 107 92 121 136 160 290 303 209 345 330 326 326 322 325 321 323 324 323 325 332 336 332 326 325 328 332 329 322 316 309 301 301 298 296 285 280
203 214 317 157 227 152 158 227 189 140 131 117 310 306 151 218 335 327 328 322 323 320 321 322 325 323 326 336 334 331 334 332 328 331 326 327 320 314 303 296 296 296 285 280
176 238 227 244 243 252 122 280 173 148 160 182 69 24 266 317 325 330 328 330 328 327 327 332 329 325 327 335 329 336 333 330 332 332 334 326 323 318 311 304 299 299 294 272
211 247 284 225 191 122 140 230 141 147 144 113 113 211 308 322 333 335 338 340 338 336 337 337 332 328 330 323 326 331 333 330 335 334 336 330 325 321 313 308 304 302 296 285
201 202 247 116 113 172 192 128 154 140 140 131 45 325 332 340 346 351 350 348 349 345 342 339 335 329 324 322 324 325 333 340 339 338 339 334 329 322 315 316 321 306 300 300
184 211 242 31 120 125 129 136 151 146 131 95 5 350 344 353 357 0 360 356 351 346 345 346 341 334 321 326 325 326 334 341 345 343 343 338 334 329 318 319 323 308 316 319
118 168 130 108 88 97 129 149 134 123 104 64 32 357 359 359 359 2 2 3 359 358 357 354 350 342 333 327 326 330 336 339 341 347 348 346 341 341 332 326 329 325 339 332
141 124 147 200 172 188 172 147 136 123 118 110 34 30 24 13 5 1 1 1 6 7 4 359 358 355 347 336 332 333 341 351 352 349 350 351 349 349 334 320 312 333 348 340
218 205 170 186 188 179 160 149 142 134 136 105 35 27 14 6 4 7 8 8 7 10 11 8 7 4 358 351 347 343 346 350 356 356 358 355 355 353 353 317 320 342 342 331
229 188 143 147 159 165 157 154 155 135 121 98 76 48 32 18 13 5 8 12 10 12 11 12 13 10 7 2 360 357 357 359 359 5 6 360 7 11 0 336 357 348 357 353
219 160 120 150 152 154 151 152 158 141 123 90 81 49 34 30 22 16 9 8 10 12 13 14 14 13 12 7 5 3 1 8 4 7 12 7 11 29 23 356 7 7 10 4
161 176 176 156 146 144 152 154 147 143 135 93 64 48 31 27 25 21 13 12 12 14 16 15 15 15 14 13 12 11 10 11 13 12 13 9 16 4 19 23 24 18 19 20
162 163 152 147 142 146 151 152 144 133 136 142 60 34 29 24 23 20 17 15 14 15 14 15 15 14 14 15 18 18 16 19 16 17 14 11 13 19 9 9 4 8 14 17
137 135 147 144 146 146 145 141 137 129 109 93 52 1 358 12 16 17 16 17 21 20 18 15 15 14 18 19 23 23 23 20 21 24 27 26 18 12 11 3 337 342 348 0
185 171 164 155 149 146 139 131 120 110 93 68 43 25 358 9 17 13 11 14 21 23 20 18 16 16 21 24 25 27 30 29 26 26 25 30 32 27 12 11 359 325 321 333
179 152 148 145 143 134 126 122 111 101 84 57 39 33 25 18 15 13 11 16 19 18 17 17 19 21 23 26 28 30 30 32 33 31 29 25 29 33 33 30 24 4 335 333
148 145 144 143 143 137 132 128 119 101 72 46 38 36 41 27 16 13 17 24 23 16 13 17 20 24 24 26 29 30 31 32 31 31 30 29 27 23 24 28 27 26 20 345
145 146 143 140 140 149 149 144 145 109 72 36 27 36 53 41 19 15 18 21 18 16 16 18 21 23 25 26 28 29 29 29 29 29 27 26 24 25 22 19 18 14 14 9
146 144 139 137 134 130 136 162 172 148 50 36 37 45 50 40 24 19 18 19 13 11 17 21 23 21 23 25 27 28 27 27 27 26 26 24 23 21 20 19 17 12 6 1
148 146 145 143 139 129 125 140 150 121 47 40 42 49 41 28 18 15 17 17 12 15 16 18 19 21 22 22 23 24 24 24 24 23 22 22 22 21 18 14 13 11 10 5
146 145 154 157 152 140 131 139 130 76 51 49 48 49 32 19 14 18 19 20 22 23 18 21 21 20 20 19 20 21 20 20 20 20 18 18 18 18 17 14 11 7 5 6
145 141 146 164 165 146 135 142 120 74 44 46 52 46 23 16 16 16 20 25 26 25 20 21 22 21 21 20 19 17 17 17 16 15 16 15 13 13 13 12 10 7 4 1
146 139 135 153 153 139 138 150 122 80 43 43 52 41 22 16 16 19 21 22 23 23 21 20 21 22 22 22 21 18 16 14 12 12 11 10 11 9 8 8 7 5 2 360
154 151 149 153 152 149 141 145 109 81 53 41 41 37 20 19 21 21 20 18 20 22 23 21 20 19 17 16 15 16 14 14 13 10 9 8 8 7 7 3 3 2 359 358
Wind_Speed_850mb
5 3 2 6 9 12 13 10 11 8 13 14 21 14 8 14 27 23 28 48 55 60 64 58 51 56 57 57 52 50 58 61 61 64 66 68 71 71 72 70 70 74 75 76
4 4 12 12 14 15 15 20 19 26 16 2 16 14 7 16 19 18 38 54 59 61 48 46 50 59 57 49 47 51 56 64 67 68 69 71 73 74 73 72 72 71 72 73
7 6 7 9 18 17 9 10 17 20 12 12 8 7 10 11 7 25 47 54 58 49 56 56 57 52 48 46 48 52 57 67 63 66 72 76 74 75 77 76 72 68 67 64
3 4 9 7 8 7 9 5 7 10 9 7 4 7 16 2 16 40 48 51 48 56 59 56 51 45 41 44 50 58 64 66 66 69 75 73 74 77 80 77 72 69 66 64
4 6 9 2 6 7 8 9 8 11 9 3 2 9 2 2 37 46 45 45 50 51 52 52 47 41 41 44 51 60 60 66 64 68 73 75 81 84 83 71 69 65 59 58
6 4 8 6 2 3 5 6 14 13 7 5 4 7 5 26 42 43 44 43 47 48 49 47 44 40 41 43 51 58 61 62 64 64 68 72 72 65 55 54 57 59 58 56
9 6 11 8 9 9 6 7 16 11 9 4 3 6 19 32 35 39 41 43 44 45 47 45 41 38 39 42 49 56 59 60 61 61 66 67 65 59 49 48 52 56 48 46
9 9 12 4 4 7 5 16 22 14 10 8 1 10 21 26 35 40 44 45 46 49 48 43 38 36 37 47 49 53 57 58 59 57 60 61 57 54 47 46 54 42 38 46
11 8 4 4 6 21 17 22 15 16 12 4 6 14 18 26 32 36 42 45 45 46 48 45 40 37 41 45 47 49 54 53 57 57 62 61 61 55 48 49 41 36 48 39
4 5 6 13 19 14 9 13 16 14 7 4 7 14 16 24 29 34 39 46 47 48 50 51 45 39 38 43 46 48 54 55 54 58 63 61 60 55 41 32 30 41 41 32
4 5 6 7 19 17 25 22 19 13 9 10 11 18 20 24 29 33 39 42 48 51 52 50 49 45 41 40 41 45 50 54 53 58 53 62 61 54 35 26 29 45 42 37
9 22 14 11 24 30 29 23 16 12 14 9 14 18 19 20 25 30 36 40 44 48 54 54 54 53 50 42 38 42 48 47 46 58 55 56 62 48 20 29 25 40 48 34
9 21 16 21 33 32 25 20 17 13 12 11 18 23 26 21 26 27 34 43 43 49 49 55 59 59 57 50 38 37 42 44 44 45 50 54 61 42 32 18 38 37 38 22
21 40 22 32 25 28 19 18 17 15 18 17 13 18 27 33 29 32 37 40 42 45 48 51 58 63 63 56 41 35 38 39 39 38 43 46 48 47 33 38 42 48 48 30
35 23 27 32 37 25 17 20 21 20 18 16 15 16 25 34 38 39 40 41 42 47 51 54 56 61 65 59 49 39 34 40 40 33 32 35 34 33 35 37 43 46 48 40
29 27 40 41 30 22 24 23 21 19 12 8 7 12 18 27 34 41 46 47 49 53 53 54 54 55 57 59 56 48 40 35 35 34 28 28 32 26 25 26 30 37 43 48
49 37 40 35 29 30 26 23 18 13 9 7 0 8 10 21 32 43 49 49 45 52 52 53 53 53 53 55 57 54 50 40 36 37 38 31 26 30 25 20 21 23 30 31
29 29 32 30 37 37 28 21 18 16 14 12 11 9 9 20 33 43 50 53 52 57 56 55 49 49 51 53 53 56 55 51 45 45 42 40 37 32 26 23 18 21 24 19
25 38 35 35 39 35 31 28 24 22 18 15 14 15 10 15 27 38 47 52 56 62 60 56 53 52 51 51 52 53 54 56 56 53 50 44 44 41 38 29 22 18 23 21
39 38 39 39 32 28 28 23 19 17 17 16 17 17 12 14 25 36 45 49 49 56 51 52 53 55 56 55 54 55 55 56 57 57 58 56 52 49 46 38 32 25 19 17
42 41 40 36 31 25 20 18 13 11 11 17 22 20 16 17 26 38 47 49 46 49 49 50 55 54 54 55 57 60 61 59 59 60 59 57 57 57 53 48 43 37 29 22
43 41 37 33 29 26 20 17 12 10 7 19 21 16 15 21 30 39 42 41 39 44 54 54 53 55 54 55 57 58 60 62 61 61 59 58 58 55 55 55 51 45 38 30
39 36 34 30 26 24 22 18 16 6 12 20 20 17 20 27 34 42 44 41 36 36 48 53 53 53 56 54 57 58 58 60 63 61 61 59 56 55 54 52 52 50 46 41
36 31 32 29 24 22 21 20 11 11 18 21 20 16 17 26 31 37 35 37 36 35 39 47 49 50 53 56 56 56 57 60 61 61 60 59 59 57 55 54 52 50 49 47
30 28 27 28 23 16 17 17 12 13 18 20 19 16 20 29 33 33 34 37 43 43 41 45 47 48 52 54 56 58 57 57 59 61 61 60 61 61 60 57 55 53 51 49
30 24 21 20 16 14 14 14 11 13 15 19 18 17 21 27 29 29 31 36 41 46 47 47 50 53 53 54 54 54 55 56 58 60 61 62 60 61 63 62 60 57 56 54
28 23 25 26 19 14 11 9 6 9 13 17 18 18 22 27 28 27 28 31 37 44 47 48 50 53 57 57 57 57 57 55 55 56 58 61 63 63 62 65 65 62 60 58
Wind_Direction_850mb
209 208 180 218 232 208 198 177 194 229 206 216 213 204 240 308 322 315 327 334 333 329 326 324 325 325 323 322 328 329 327 327 324 321 318 316 314 312 311 306 295 285 282 274
298 215 221 244 243 241 213 213 231 241 254 239 162 166 257 301 312 309 323 327 326 325 325 321 319 323 321 328 334 330 327 327 325 324 321 317 314 310 307 301 302 292 276 274
250 340 330 267 232 220 220 200 194 216 222 154 155 206 280 310 296 324 326 323 324 322 326 322 321 320 324 331 332 333 334 336 328 326 324 320 317 310 300 300 298 300 283 283
205 334 239 255 335 221 162 78 107 92 121 136 160 290 303 209 345 330 326 326 322 325 321 323 324 323 325 332 336 332 326 325 328 332 329 322 316 309 301 301 298 296 285 280
203 214 317 157 227 152 158 227 189 140 131 117 310 306 151 218 335 327 328 322 323 320 321 322 325 323 326 336 334 331 334 332 328 331 326 327 320 314 303 296 296 296 285 280
176 238 227 244 243 252 122 280 173 148 160 182 69 24 266 317 325 330 328 330 328 327 327 332 329 325 327 335 329 336 333 330 332 332 334 326 323 318 311 304 299 299 294 272
211 247 284 225 191 122 140 230 141 147 144 113 113 211 308 322 333 335 338 340 338 336 337 337 332 328 330 323 326 331 333 330 335 334 336 330 325 321 313 308 304 302 296 285
201 202 247 116 113 172 192 128 154 140 140 131 45 325 332 340 346 351 350 348 349 345 342 339 335 329 324 322 324 325 333 340 339 338 339 334 329 322 315 316 321 306 300 300
184 211 242 31 120 125 129 136 151 146 131 95 5 350 344 353 357 0 360 356 351 346 345 346 341 334 321 326 325 326 334 341 345 343 343 338 334 329 318 319 323 308 316 319
118 168 130 108 88 97 129 149 134 123 104 64 32 357 359 359 359 2 2 3 359 358 357 354 350 342 333 327 326 330 336 339 341 347 348 346 341 341 332 326 329 325 339 332
141 124 147 200 172 188 172 147 136 123 118 110 34 30 24 13 5 1 1 1 6 7 4 359 358 355 347 336 332 333 341 351 352 349 350 351 349 349 334 320 312 333 348 340
218 205 170 186 188 179 160 149 142 134 136 105 35 27 14 6 4 7 8 8 7 10 11 8 7 4 358 351 347 343 346 350 356 356 358 355 355 353 353 317 320 342 342 331
229 188 143 147 159 165 157 154 155 135 121 98 76 48 32 18 13 5 8 12 10 12 11 12 13 10 7 2 360 357 357 359 359 5 6 360 7 11 0 336 357 348 357 353
219 160 120 150 152 154 151 152 158 141 123 90 81 49 34 30 22 16 9 8 10 12 13 14 14 13 12 7 5 3 1 8 4 7 12 7 11 29 23 356 7 7 10 4
161 176 176 156 146 144 152 154 147 143 135 93 64 48 31 27 25 21 13 12 12 14 16 15 15 15 14 13 12 11 10 11 13 12 13 9 16 4 19 23 24 18 19 20
162 163 152 147 142 146 151 152 144 133 136 142 60 34 29 24 23 20 17 15 14 15 14 15 15 14 14 15 18 18 16 19 16 17 14 11 13 19 9 9 4 8 14 17
137 135 147 144 146 146 145 141 137 129 109 93 52 1 358 12 16 17 16 17 21 20 18 15 15 14 18 19 23 23 23 20 21 24 27 26 18 12 11 3 337 342 348 0
185 171 164 155 149 146 139 131 120 110 93 68 43 25 358 9 17 13 11 14 21 23 20 18 16 16 21 24 25 27 30 29 26 26 25 30 32 27 12 11 359 325 321 333
179 152 148 145 143 134 126 122 111 101 84 57 39 33 25 18 15 13 11 16 19 18 17 17 19 21 23 26 28 30 30 32 33 31 29 25 29 33 33 30 24 4 335 333
148 145 144 143 143 137 132 128 119 101 72 46 38 36 41 27 16 13 17 24 23 16 13 17 20 24 24 26 29 30 31 32 31 31 30 29 27 23 24 28 27 26 20 345
145 146 143 140 140 149 149 144 145 109 72 36 27 36 53 41 19 15 18 21 18 16 16 18 21 23 25 26 28 29 29 29 29 29 27 26 24 25 22 19 18 14 14 9
146 144 139 137 134 130 136 162 172 148 50 36 37 45 50 40 24 19 18 19 13 11 17 21 23 21 23 25 27 28 27 27 27 26 26 24 23 21 20 19 17 12 6 1
148 146 145 143 139 129 125 140 150 121 47 40 42 49 41 28 18 15 17 17 12 15 16 18 19 21 22 22 23 24 24 24 24 23 22 22 22 21 18 14 13 11 10 5
146 145 154 157 152 140 131 139 130 76 51 49 48 49 32 19 14 18 19 20 22 23 18 21 21 20 20 19 20 21 20 20 20 20 18 18 18 18 17 14 11 7 5 6
145 141 146 164 165 146 135 142 120 74 44 46 52 46 23 16 16 16 20 25 26 25 20 21 22 21 21 20 19 17 17 17 16 15 16 15 13 13 13 12 10 7 4 1
146 139 135 153 153 139 138 150 122 80 43 43 52 41 22 16 16 19 21 22 23 23 21 20 21 22 22 22 21 18 16 14 12 12 11 10 11 9 8 8 7 5 2 360
154 151 149 153 152 149 141 145 109 81 53 41 41 37 20 19 21 21 20 18 20 22 23 21 20 19 17 16 15 16 14 14 13 10 9 8 8 7 7 3 3 2 359 358